Location: Newark
(35.9031°N, 139.7175°E)
Time: 18:48:39
(UTC+00:00)

Courier 1B - All Passes

Search period start: 06 June 2020 00:00
Search period end: 16 June 2020 00:00
Orbit: 963 x 1209 km, 28.3° (Epoch: 05 June)

Date Brightness Start Highest point End Pass type
(mag) Time Alt. Az. Time Alt. Az. Time Alt. Az.
06 Jun - 09:12:22 10° SSE 09:13:38 11° SSE 09:14:54 10° SE daylight
06 Jun - 11:00:58 10° SW 11:06:44 29° SSE 11:12:49 10° ESE visible
06 Jun - 12:53:36 10° WSW 13:00:19 46° S 13:07:25 10° ESE visible
06 Jun - 14:47:16 10° WSW 14:54:08 43° S 15:01:21 10° ESE visible
06 Jun - 16:41:48 10° WSW 16:47:50 26° SSW 16:54:00 10° SSE visible
07 Jun - 10:07:59 10° SSW 10:13:08 24° SSE 10:18:32 10° ESE daylight
07 Jun - 12:00:07 10° WSW 12:06:33 42° S 12:13:25 10° ESE visible
07 Jun - 13:53:32 10° WSW 14:00:19 46° S 14:07:31 10° ESE visible
07 Jun - 15:47:44 10° WSW 15:54:04 30° SSW 16:00:39 10° SE night (unlit)
07 Jun - 17:44:35 10° SW 17:47:31 12° SSW 17:50:30 10° S visible
08 Jun - 09:15:16 10° SSW 09:19:35 18° SSE 09:24:02 10° ESE daylight
08 Jun - 11:06:43 10° SW 11:12:52 38° SSE 11:19:23 10° ESE visible
08 Jun - 12:59:53 10° WSW 13:06:33 47° S 13:13:38 10° ESE visible
08 Jun - 14:53:48 10° WSW 15:00:18 35° SSW 15:07:06 10° SE visible
08 Jun - 16:49:21 10° WSW 16:53:49 17° SSW 16:58:24 10° S night (unlit)
09 Jun - 08:23:07 10° S 08:26:04 13° SSE 08:29:05 10° SE daylight
09 Jun - 10:13:26 10° SW 10:19:13 32° SSE 10:25:20 10° ESE visible
09 Jun - 12:06:18 10° WSW 12:12:48 46° S 12:19:43 10° ESE visible
09 Jun - 14:00:01 10° WSW 14:06:33 39° SSW 14:13:26 10° SE visible
09 Jun - 15:54:50 10° WSW 16:00:07 21° SSW 16:05:35 10° SSE night (unlit)
10 Jun - 09:20:17 10° SW 09:25:39 27° SSE 09:31:12 10° ESE daylight
10 Jun - 11:12:47 10° WSW 11:19:05 44° S 11:25:46 10° ESE visible
10 Jun - 13:06:18 10° WSW 13:12:47 42° S 13:19:40 10° ESE visible
10 Jun - 15:00:39 10° WSW 15:06:25 26° SSW 15:12:24 10° SSE visible
11 Jun - 08:27:20 10° SSW 08:32:06 21° SSE 08:36:58 10° ESE daylight
11 Jun - 10:19:19 10° WSW 10:25:25 40° S 10:31:49 10° ESE visible
11 Jun - 12:12:39 10° WSW 12:19:03 45° S 12:25:51 10° ESE visible
11 Jun - 14:06:42 10° WSW 14:12:42 30° SSW 14:19:00 10° SE visible
11 Jun - 16:03:13 10° SW 16:06:08 13° SSW 16:09:06 10° S night (unlit)
12 Jun - 07:34:42 10° S 07:38:35 16° SSE 07:42:29 10° ESE daylight
12 Jun - 09:25:57 10° SW 09:31:48 35° SSE 09:37:52 10° ESE daylight
12 Jun - 11:19:03 10° WSW 11:25:21 45° S 11:32:01 10° ESE visible
12 Jun - 13:12:52 10° WSW 13:18:59 34° SSW 13:25:28 10° SE visible
12 Jun - 15:08:12 10° WSW 15:12:28 17° SSW 15:16:52 10° S night (unlit)
13 Jun - 06:42:45 10° S 06:45:04 12° SSE 06:47:24 10° SE daylight
13 Jun - 08:32:41 10° SW 08:38:13 30° SSE 08:43:52 10° ESE daylight
13 Jun - 10:25:30 10° WSW 10:31:40 44° S 10:38:09 10° ESE visible
13 Jun - 12:19:07 10° WSW 12:25:17 38° S 12:31:49 10° SE visible
13 Jun - 14:13:48 10° WSW 14:18:48 21° SSW 14:24:00 10° SSE visible
14 Jun - 07:39:32 10° SSW 07:44:39 25° SSE 07:49:50 10° ESE daylight
14 Jun - 09:31:59 10° WSW 09:38:02 42° S 09:44:19 10° ESE daylight
14 Jun - 11:25:28 10° WSW 11:31:37 41° S 11:38:06 10° ESE visible
14 Jun - 13:19:43 10° WSW 13:25:09 25° SSW 13:30:49 10° SSE visible
15 Jun - 06:46:35 10° SSW 06:51:08 20° SSE 06:55:40 10° ESE daylight
15 Jun - 08:38:31 10° SW 08:44:25 38° S 08:50:27 10° ESE daylight
15 Jun - 10:31:50 10° WSW 10:37:58 43° S 10:44:22 10° ESE visible
15 Jun - 12:25:49 10° WSW 12:31:30 29° SSW 12:37:26 10° SE visible
15 Jun - 14:22:14 10° SW 14:24:51 12° SSW 14:27:31 10° S visible
